[[{"header":{"parameterUnit":"m.s-1","parameterCategory":1,"la1":30.2991,"la2":30.254,"lo1":-89.0895,"lo2":-89.0444,"dy":0.0017,"dx":0.0017,"nx":28,"ny":28,"refTime":"2024-10-17T09:00:00:Z","depth":0,"parameterNumber":2,"parameterNumberName":"U-component_of_WINDS"},"data":[0,0,0,0,0,0,0,0,0,0,0,0,0,0,0,0,0,0,0,0,0,0,0,0,0,0,0,0,0,0,0,0,0,0,0,0,0,0,0,0,0,0,0,0,0,0,0,0,0,0,0,0,0,0,0,0,0,0,-2.7823,-2.7823,0,-2.7797,-2.7796,-2.7796,-2.7691,-2.7689,-2.7686,-2.7684,-2.7659,-2.7661,-2.7662,0,0,0,0,0,0,0,0,0,0,0,0,0,-2.7787,-2.7789,-2.7823,-2.7823,-2.7823,-2.7797,-2.7796,-2.7796,-2.7692,-2.7689,-2.7686,-2.7683,-2.7659,-2.7661,-2.7662,0,0,0,0,0,0,0,0,0,0,0,0,0,-2.7786,-2.7789,-2.7823,-2.7767,-2.7762,-2.7797,-2.7796,-2.7796,-2.7692,-2.7689,-2.7685,-2.7681,-2.7658,-2.766,-2.7663,-2.775,0,0,-2.767,-2.7671,0,0,0,0,0,0,0,0,-2.7786,-2.7788,-2.7776,-2.7771,-2.7765,-2.7743,-2.7774,-2.7781,-2.7693,-2.7719,-2.7684,-2.768,-2.769,-2.769,-2.7693,-2.7749,-2.7748,-2.767,-2.7672,-2.7673,-2.7673,0,0,0,0,0,0,0,-2.7787,-2.7788,-2.7813,-2.7776,-2.777,-2.7745,-2.7741,-2.7775,-2.7725,-2.7716,-2.7709,-2.7707,-2.7687,-2.7691,-2.7691,-2.7747,-2.767,-2.7672,-2.7674,-2.7675,-2.7876,-2.788,0,0,0,0,0,0,-2.7794,-2.7789,-2.7814,-2.7812,-2.7767,-2.7748,-2.7744,-2.7754,-2.7725,-2.7717,-2.771,-2.7702,-2.7689,-2.7689,-2.769,-2.7792,-2.7673,-2.7675,-2.7676,-2.7872,-2.7877,-2.7881,0,0,0,0,0,0,-2.7794,-2.7797,-2.7815,-2.7798,-2.7799,-2.7753,-2.7766,-2.7756,-2.7759,-2.772,-2.7711,-2.7723,-2.7686,-2.7687,-2.7736,-2.779,-2.7676,-2.7678,-2.7867,-2.7873,-2.7879,-2.7995,0,0,0,0,0,0,-2.7793,-2.7798,-2.783,-2.78,-2.78,-2.7861,-2.7769,-2.7758,-2.7764,-2.7753,-2.773,-2.7722,-2.7683,-2.7733,-2.7739,-2.7791,-2.768,-2.7862,-2.787,-2.7877,-2.7987,-2.8005,-2.802,0,0,0,0,0,-2.7792,-2.7864,-2.7832,-2.7835,-2.7839,-2.7864,-2.7864,-2.7816,-2.7768,-2.7801,-2.7775,-2.7723,-2.7783,-2.7739,-2.7744,-2.7798,-2.7859,-2.7868,-2.7876,-2.7979,-2.8001,-2.802,0,0,0,0,0,0,-2.7901,-2.7859,-2.7823,-2.7886,-2.788,-2.7846,-2.7885,-2.7841,-2.7848,-2.7838,-2.7779,-2.7775,-2.7833,-2.782,-2.7773,-2.7882,-2.7812,-2.7822,-2.7889,-2.7909,-2.7925,-2.7928,-2.7682,0,0,0,0,0,-2.7933,-2.7956,-2.7917,-2.7977,-2.7976,-2.7932,-2.794,-2.7905,-2.7895,-2.7892,-2.787,-2.7864,-2.7881,-2.7894,-2.7908,-2.7984,-2.7979,-2.8024,-2.804,-2.8054,-2.8064,-2.8106,-2.8126,-2.791,-2.791,-2.791,0,0,-2.7998,-2.7978,-2.7996,-2.7999,-2.7989,-2.8016,-2.793,-2.7961,-2.798,-2.7897,-2.7942,-2.7927,-2.7916,-2.798,-2.8007,-2.7971,-2.8123,-2.8065,-2.8077,-2.8079,-2.8117,-2.8137,-2.8156,-2.7916,-2.7915,-2.7914,0,0,-2.8131,-2.8117,-2.8166,-2.8158,-2.8145,-2.8115,-2.8127,-2.81,-2.8087,-2.8131,-2.807,-2.8093,-2.8123,-2.8119,-2.8121,-2.8254,-2.8207,-2.826,-2.8347,-2.8388,-2.8405,-2.842,-2.847,-2.8488,-2.827,-2.827,-2.827,0,-2.8214,-2.825,-2.8197,-2.8233,-2.8237,-2.8162,-2.8213,-2.8208,-2.82,-2.8205,-2.8165,-2.8203,-2.8191,-2.8253,-2.8286,-2.8289,-2.8303,-2.8263,-2.8407,-2.8421,-2.8434,-2.8481,-2.8499,-2.8277,-2.8276,-2.8275,-2.8275,0,-2.8354,-2.8381,-2.8422,-2.8416,-2.8425,-2.8468,-2.8423,-2.8438,-2.8402,-2.8377,-2.8425,-2.8407,-2.8417,-2.8429,-2.8394,-2.8487,-2.8466,-2.8417,-2.8346,-2.8463,-2.8505,-2.8523,-2.8286,-2.8284,-2.8282,-2.828,0,0,-2.8555,-2.852,-2.8536,-2.8533,-2.8513,-2.8533,-2.8574,-2.8583,-2.8598,-2.8595,-2.8629,-2.8658,-2.8613,-2.8615,-2.8579,-2.8615,-2.8724,-2.8562,-2.8561,-2.8594,-2.8829,-2.8866,-2.8888,-2.8692,-2.8695,-2.8698,-2.883,0,-2.8682,-2.8748,-2.8703,-2.8777,-2.8802,-2.8732,-2.8768,-2.8761,-2.8739,-2.8758,-2.8733,-2.8755,-2.8694,-2.8695,-2.8727,-2.8704,-2.8771,-2.8694,-2.8725,-2.8727,-2.8731,-2.891,-2.8949,-2.9075,-2.8846,-2.8849,-2.8851,0,-2.884,-2.8845,-2.8922,-2.8898,-2.8907,-2.894,-2.8945,-2.8964,-2.8955,-2.8936,-2.894,-2.8895,-2.8935,-2.8864,-2.8919,-2.8868,-2.8878,-2.8869,-2.8872,-2.8875,-2.8797,-2.8918,-2.9113,-2.9133,-2.8876,-2.8874,-2.8872,0,-2.8981,-2.9006,-2.9056,-2.9055,-2.9029,-2.9054,-2.9044,-2.9031,-2.9041,-2.9046,-2.9051,-2.9062,-2.9068,-2.9077,-2.9037,-2.8989,-2.9098,-2.9024,-2.9086,-2.9087,-2.9113,-2.9112,-2.9314,-2.9117,-2.9117,-2.9117,-2.9116,0,-2.9129,-2.918,-2.9119,-2.915,-2.9205,-2.9152,-2.9209,-2.9192,-2.9181,-2.9209,-2.9149,-2.9176,-2.9121,-2.9143,-2.9112,-2.9164,-2.9166,-2.9154,-2.9145,-2.916,-2.9162,-2.9167,-2.9158,-2.9122,-2.9121,-2.912,-2.9119,0,-2.9296,-2.9257,-2.9307,-2.9278,-2.9272,-2.9315,-2.929,-2.9319,-2.9293,-2.9329,-2.9334,-2.9295,-2.9318,-2.9278,-2.9297,-2.9276,-2.9349,-2.9326,-2.9352,-2.9346,-2.9411,-2.9406,-2.9624,-2.9651,-2.9436,-2.9438,-2.944,0,-2.9394,-2.9431,-2.9406,-2.942,-2.9414,-2.9437,-2.9446,-2.9396,-2.9408,-2.9402,-2.9432,-2.9449,-2.9461,-2.9502,-2.9476,-2.949,-2.9468,-2.9544,-2.947,-2.9485,-2.9472,-2.9471,-2.9475,-2.956,-2.9562,-2.9564,-2.9566,0,-2.9572,-2.9551,-2.9566,-2.9575,-2.9588,-2.9592,-2.9593,-2.9608,-2.9555,-2.9573,-2.9595,-2.9605,-2.9624,-2.9643,-2.9652,-2.9643,-2.9597,-2.9589,-2.9605,-2.9621,-2.9635,-2.963,-2.9395,-2.9585,-2.9583,-2.9582,-2.958,-2.958,-2.9708,-2.9739,-2.9727,-2.9746,-2.9741,-2.9743,-2.9769,-2.9747,-2.9765,-2.9776,-2.9746,-2.9777,-2.9768,-2.9774,-2.9771,-2.9795,-2.9762,-2.9784,-2.979,-2.9797,-2.9808,-2.9631,-2.9796,-2.9796,-2.9795,-2.9795,-2.9794,0,-2.9885,-2.9874,-2.9892,-2.9895,-2.9911,-2.9865,-2.9863,-2.988,-2.9907,-2.9903,-2.9916,-2.9944,-2.9963,-2.9939,-2.9954,-2.9978,-2.9958,-2.9984,-2.9983,-2.9982,-2.9836,-2.9822,-3.0001,-3.0001,-3.0001,-3.0001,-3.0001,-3.0,-2.9979,-3.0029,-3.0007,-3.0055,-3.0043,-3.0072,-3.0076,-3.0079,-3.0075,-3.0108,-3.0124,-3.0107,-3.0096,-3.011,-3.0126,-3.0119,-3.0128,-3.0162,-3.0148,-3.0012,-2.9992,-2.9973,-2.9959,-3.0164,-3.0165,-3.0292,-3.0293,-3.0294]},{"header":{"parameterUnit":"m.s-1","parameterCategory":1,"la1":30.2991,"la2":30.254,"lo1":-89.0895,"lo2":-89.0444,"dy":0.0017,"dx":0.0017,"nx":28,"ny":28,"refTime":"2024-10-17T09:00:00:Z","depth":0,"parameterNumber":3,"parameterNumberName":"V-component_of_WINDS"},"data":[0,0,0,0,0,0,0,0,0,0,0,0,0,0,0,0,0,0,0,0,0,0,0,0,0,0,0,0,0,0,0,0,0,0,0,0,0,0,0,0,0,0,0,0,0,0,0,0,0,0,0,0,0,0,0,0,0,0,-0.693,-0.693,0,-0.6951,-0.6951,-0.6951,-0.6935,-0.6935,-0.6934,-0.6933,-0.6956,-0.6957,-0.6958,0,0,0,0,0,0,0,0,0,0,0,0,0,-0.6877,-0.6878,-0.693,-0.693,-0.693,-0.6951,-0.6951,-0.6951,-0.6935,-0.6934,-0.6934,-0.6933,-0.6955,-0.6957,-0.6958,0,0,0,0,0,0,0,0,0,0,0,0,0,-0.6899,-0.6878,-0.693,-0.6925,-0.6924,-0.6951,-0.6951,-0.6951,-0.6935,-0.6934,-0.6933,-0.6932,-0.6955,-0.6957,-0.6959,-0.6991,0,0,-0.6964,-0.6965,0,0,0,0,0,0,0,0,-0.6898,-0.6901,-0.6925,-0.6925,-0.6925,-0.6939,-0.6941,-0.6965,-0.6936,-0.6931,-0.6933,-0.6932,-0.6951,-0.6953,-0.696,-0.6992,-0.6993,-0.6965,-0.6966,-0.6967,-0.6967,0,0,0,0,0,0,0,-0.6896,-0.69,-0.6938,-0.6926,-0.6925,-0.6922,-0.6924,-0.6945,-0.6947,-0.6932,-0.6931,-0.6933,-0.6951,-0.6958,-0.696,-0.6993,-0.6965,-0.6966,-0.6967,-0.6968,-0.7054,-0.7055,0,0,0,0,0,0,-0.6895,-0.6899,-0.6937,-0.6939,-0.6908,-0.6924,-0.6926,-0.6936,-0.6947,-0.6947,-0.6934,-0.6932,-0.6955,-0.6958,-0.6961,-0.7,-0.6966,-0.6968,-0.6969,-0.7053,-0.7055,-0.7056,0,0,0,0,0,0,-0.6894,-0.6899,-0.6936,-0.6918,-0.6923,-0.6926,-0.6937,-0.6937,-0.6944,-0.6948,-0.6949,-0.6941,-0.6954,-0.6958,-0.6984,-0.7001,-0.6969,-0.6971,-0.7052,-0.7054,-0.7055,-0.7079,0,0,0,0,0,0,-0.6892,-0.6898,-0.6911,-0.6919,-0.6924,-0.6959,-0.6938,-0.6938,-0.6947,-0.6945,-0.6955,-0.6955,-0.6954,-0.6981,-0.6986,-0.7003,-0.6972,-0.705,-0.7053,-0.7055,-0.7077,-0.7082,-0.7086,0,0,0,0,0,-0.6891,-0.6917,-0.6911,-0.6916,-0.6939,-0.696,-0.6963,-0.696,-0.6948,-0.6961,-0.6964,-0.6955,-0.6998,-0.6984,-0.6989,-0.7007,-0.7049,-0.7052,-0.7054,-0.7075,-0.7081,-0.7086,0,0,0,0,0,0,-0.6911,-0.6918,-0.6912,-0.6941,-0.695,-0.6957,-0.6973,-0.6966,-0.6979,-0.6977,-0.6973,-0.6976,-0.7003,-0.7007,-0.6991,-0.7039,-0.7022,-0.7025,-0.7036,-0.7041,-0.7045,-0.7045,-0.6974,0,0,0,0,0,-0.6918,-0.6934,-0.694,-0.6965,-0.697,-0.6971,-0.6979,-0.6976,-0.6986,-0.699,-0.6995,-0.7004,-0.702,-0.7031,-0.7045,-0.7077,-0.708,-0.7092,-0.7096,-0.71,-0.7104,-0.7122,-0.7128,-0.7064,-0.7064,-0.7064,0,0,-0.6935,-0.6941,-0.6951,-0.6969,-0.6976,-0.6993,-0.6974,-0.6993,-0.7006,-0.6993,-0.7018,-0.7021,-0.7032,-0.7061,-0.7074,-0.7066,-0.7121,-0.7103,-0.7106,-0.7108,-0.7125,-0.7131,-0.7137,-0.7066,-0.7066,-0.7066,0,0,-0.6974,-0.6979,-0.7002,-0.7008,-0.7018,-0.7019,-0.7024,-0.7032,-0.7034,-0.7059,-0.705,-0.7065,-0.7092,-0.71,-0.7107,-0.7149,-0.7142,-0.7154,-0.7177,-0.7195,-0.72,-0.7204,-0.7221,-0.7226,-0.7157,-0.7157,-0.7157,0,-0.6994,-0.7019,-0.7014,-0.7034,-0.7042,-0.703,-0.7053,-0.706,-0.7075,-0.7081,-0.7071,-0.7105,-0.7111,-0.7142,-0.7152,-0.7158,-0.7165,-0.7154,-0.7199,-0.7204,-0.7208,-0.7223,-0.7229,-0.7159,-0.7158,-0.7158,-0.7158,0,-0.7043,-0.706,-0.7077,-0.7091,-0.7101,-0.7122,-0.7121,-0.7132,-0.7128,-0.713,-0.7155,-0.7162,-0.7178,-0.7185,-0.7181,-0.7216,-0.721,-0.72,-0.7182,-0.7216,-0.723,-0.7236,-0.7161,-0.716,-0.716,-0.7159,0,0,-0.7097,-0.7107,-0.7114,-0.712,-0.713,-0.7144,-0.7164,-0.718,-0.719,-0.72,-0.7218,-0.724,-0.7231,-0.7239,-0.7236,-0.7251,-0.7286,-0.7239,-0.7239,-0.7249,-0.7326,-0.7335,-0.7342,-0.728,-0.7281,-0.7282,-0.7325,0,-0.7138,-0.7173,-0.717,-0.7204,-0.7221,-0.7209,-0.7227,-0.7236,-0.7237,-0.7252,-0.7253,-0.727,-0.7255,-0.7261,-0.7275,-0.7278,-0.7301,-0.7275,-0.7298,-0.7299,-0.7298,-0.7349,-0.7359,-0.74,-0.7331,-0.7332,-0.7332,0,-0.719,-0.7202,-0.7238,-0.7246,-0.7253,-0.7269,-0.7283,-0.7297,-0.7306,-0.7306,-0.7316,-0.731,-0.7331,-0.7311,-0.7341,-0.7323,-0.7332,-0.7335,-0.7337,-0.734,-0.7319,-0.7356,-0.7413,-0.7419,-0.7341,-0.734,-0.734,0,-0.7228,-0.7253,-0.7278,-0.7284,-0.7293,-0.7305,-0.7309,-0.7317,-0.7327,-0.7339,-0.7345,-0.7359,-0.7368,-0.7379,-0.7377,-0.7363,-0.7408,-0.7388,-0.741,-0.741,-0.7421,-0.7421,-0.7482,-0.7424,-0.7424,-0.7424,-0.7424,0,-0.7275,-0.7298,-0.7295,-0.7311,-0.7336,-0.7331,-0.7357,-0.7359,-0.7367,-0.7383,-0.7373,-0.7389,-0.7385,-0.74,-0.7399,-0.7424,-0.7428,-0.7429,-0.7429,-0.7431,-0.7431,-0.7439,-0.7436,-0.7425,-0.7425,-0.7425,-0.7424,0,-0.7323,-0.7321,-0.7348,-0.7354,-0.7356,-0.7375,-0.738,-0.7395,-0.7396,-0.7417,-0.7421,-0.7422,-0.744,-0.7439,-0.7459,-0.7458,-0.749,-0.7485,-0.7487,-0.7487,-0.7509,-0.7507,-0.7578,-0.7588,-0.7522,-0.7522,-0.7523,0,-0.7354,-0.7371,-0.7379,-0.7389,-0.7394,-0.7411,-0.742,-0.7416,-0.7426,-0.7438,-0.7452,-0.7468,-0.7482,-0.7511,-0.7514,-0.7529,-0.7526,-0.7549,-0.7528,-0.753,-0.7528,-0.7528,-0.753,-0.7554,-0.7555,-0.7556,-0.7556,0,-0.741,-0.7408,-0.7422,-0.7436,-0.7448,-0.7459,-0.7469,-0.7478,-0.7474,-0.7486,-0.7504,-0.7515,-0.7535,-0.7552,-0.7567,-0.7571,-0.7564,-0.7562,-0.7569,-0.7572,-0.7573,-0.7575,-0.75,-0.7561,-0.7561,-0.756,-0.756,-0.756,-0.7451,-0.7467,-0.7475,-0.7491,-0.7498,-0.7507,-0.7522,-0.7523,-0.7538,-0.7554,-0.755,-0.7571,-0.758,-0.7598,-0.7604,-0.7621,-0.7612,-0.7621,-0.7623,-0.7626,-0.7629,-0.7569,-0.7623,-0.7623,-0.7623,-0.7623,-0.7623,0,-0.7508,-0.7513,-0.7527,-0.7542,-0.7554,-0.7545,-0.7555,-0.7567,-0.7585,-0.7593,-0.7606,-0.7627,-0.7644,-0.7647,-0.7663,-0.7676,-0.7672,-0.768,-0.768,-0.7682,-0.7635,-0.7629,-0.7682,-0.7682,-0.7682,-0.7682,-0.7682,-0.7682,-0.754,-0.7565,-0.7564,-0.7593,-0.7598,-0.7618,-0.7624,-0.7633,-0.764,-0.7664,-0.7677,-0.7679,-0.7686,-0.7702,-0.7717,-0.7718,-0.7725,-0.7734,-0.7734,-0.7691,-0.7685,-0.7679,-0.7673,-0.7735,-0.7735,-0.7779,-0.7779,-0.778]}]]